• In Belarus
  • List of Countries
  • For 7 days
  • Water Temperature
  • Satellite Maps
  • Weather Map
  • Weather Widgets
  • user-avatar
    Login

    Hourly Weather Ivanovskoe-2

    Today, 21 April, Sunday

    Time Temperature Precipitation Wind Pressure Humidity
    00:00 +10°C° 0 mm 1 mps 749 mmHg 47%
    01:00 +9°C° 0 mm 1 mps 749 mmHg 49%
    02:00 +7°C° 0 mm 2 mps 749 mmHg 45%
    03:00 +7°C° 0 mm 1 mps 749 mmHg 47%
    04:00 +7°C° 0 mm 1 mps 750 mmHg 48%
    05:00 +7°C° 0 mm 1 mps 750 mmHg 50%
    06:00 +8°C° 0 mm 1 mps 750 mmHg 46%
    07:00 +9°C° 0 mm 2 mps 750 mmHg 43%
    08:00 +12°C° 0 mm 2 mps 750 mmHg 39%
    09:00 +13°C° 0 mm 2 mps 751 mmHg 34%
    10:00 +14°C° 0 mm 2 mps 751 mmHg 30%
    11:00 +15°C° 0 mm 2 mps 751 mmHg 26%
    12:00 +15°C° 0 mm 2 mps 751 mmHg 25%
    13:00 +16°C° 0 mm 2 mps 751 mmHg 25%
    14:00 +16°C° 0 mm 2 mps 750 mmHg 24%
    15:00 +16°C° 0 mm 2 mps 750 mmHg 26%
    16:00 +16°C° 0 mm 2 mps 750 mmHg 27%
    17:00 +15°C° 0 mm 2 mps 751 mmHg 28%
    18:00 +14°C° 0 mm 2 mps 751 mmHg 32%
    19:00 +13°C° 0 mm 1 mps 751 mmHg 35%
    20:00 +11°C° 0 mm 1 mps 751 mmHg 38%
    21:00 +11°C° 0 mm 1 mps 751 mmHg 40%
    22:00 +10°C° 0 mm 1 mps 751 mmHg 41%
    23:00 +10°C° 0 mm 1 mps 752 mmHg 43%

    Tomorrow, 22 April, Monday

    Time Temperature Precipitation Wind Pressure Humidity
    00:00 +9°C° 0 mm 1 mps 752 mmHg 44%
    01:00 +9°C° 0 mm 1 mps 752 mmHg 45%
    02:00 +8°C° 0 mm 1 mps 752 mmHg 47%
    03:00 +8°C° 0 mm 1 mps 752 mmHg 49%
    04:00 +8°C° 0 mm 1 mps 752 mmHg 50%
    05:00 +8°C° 0 mm 1 mps 753 mmHg 52%
    06:00 +9°C° 0 mm 1 mps 753 mmHg 49%
    07:00 +11°C° 0 mm 1 mps 753 mmHg 45%
    08:00 +13°C° 0 mm 2 mps 753 mmHg 42%
    09:00 +14°C° 0 mm 2 mps 753 mmHg 38%
    10:00 +15°C° 0 mm 2 mps 753 mmHg 34%
    11:00 +16°C° 0 mm 2 mps 753 mmHg 30%
    12:00 +16°C° 0 mm 2 mps 753 mmHg 30%
    13:00 +16°C° 0 mm 2 mps 753 mmHg 30%
    14:00 +16°C° 0 mm 2 mps 753 mmHg 30%
    15:00 +16°C° 0 mm 2 mps 752 mmHg 32%
    16:00 +16°C° 0 mm 2 mps 752 mmHg 34%
    17:00 +16°C° 0 mm 2 mps 752 mmHg 37%
    18:00 +15°C° 0 mm 1 mps 752 mmHg 40%
    19:00 +13°C° 0 mm 1 mps 752 mmHg 43%
    20:00 +12°C° 0 mm 1 mps 752 mmHg 46%
    21:00 +11°C° 0 mm 1 mps 753 mmHg 47%
    22:00 +11°C° 0 mm 1 mps 753 mmHg 49%
    23:00 +11°C° 0 mm 1 mps 753 mmHg 50%

    Day after tomorrow, 23 April, Tuesday

    Time Temperature Precipitation Wind Pressure Humidity
    00:00 +11°C° 0 mm 1 mps 753 mmHg 50%
    01:00 +10°C° 0 mm 1 mps 753 mmHg 50%
    02:00 +10°C° 0 mm 1 mps 753 mmHg 50%
    03:00 +10°C° 0 mm 1 mps 753 mmHg 52%
    04:00 +9°C° 0 mm 2 mps 754 mmHg 54%
    05:00 +9°C° 0 mm 2 mps 754 mmHg 55%
    06:00 +10°C° 0 mm 2 mps 754 mmHg 52%
    07:00 +13°C° 0 mm 2 mps 754 mmHg 49%
    08:00 +15°C° 0 mm 2 mps 754 mmHg 46%
    09:00 +16°C° 0 mm 2 mps 754 mmHg 42%
    10:00 +17°C° 0 mm 3 mps 754 mmHg 38%
    11:00 +18°C° 0 mm 3 mps 754 mmHg 34%
    12:00 +18°C° 0 mm 3 mps 754 mmHg 34%
    13:00 +18°C° 0 mm 3 mps 753 mmHg 34%
    14:00 +19°C° 0 mm 3 mps 753 mmHg 34%
    15:00 +19°C° 0 mm 3 mps 753 mmHg 36%
    16:00 +18°C° 0 mm 3 mps 753 mmHg 38%
    17:00 +18°C° 0 mm 3 mps 753 mmHg 40%
    18:00 +16°C° 0 mm 3 mps 753 mmHg 45%
    19:00 +14°C° 0 mm 3 mps 753 mmHg 50%
    20:00 +13°C° 0 mm 2 mps 753 mmHg 55%
    21:00 +13°C° 0 mm 2 mps 753 mmHg 58%
    22:00 +12°C° 0 mm 2 mps 753 mmHg 61%
    23:00 +10°C° 0 mm 3 mps 753 mmHg 64%

    24 April, Wednesday

    Time Temperature Precipitation Wind Pressure Humidity
    00:00 +10°C° 0 mm 3 mps 753 mmHg 65%
    01:00 +10°C° 0 mm 3 mps 754 mmHg 67%
    02:00 +9°C° 0 mm 3 mps 754 mmHg 69%
    03:00 +9°C° 0 mm 3 mps 754 mmHg 70%
    04:00 +9°C° 0 mm 3 mps 754 mmHg 71%
    05:00 +8°C° 0 mm 3 mps 754 mmHg 72%
    06:00 +10°C° 0 mm 3 mps 754 mmHg 66%
    07:00 +12°C° 0 mm 3 mps 754 mmHg 61%
    08:00 +14°C° 0 mm 3 mps 754 mmHg 55%
    09:00 +15°C° 0 mm 4 mps 754 mmHg 49%
    10:00 +18°C° 0 mm 4 mps 754 mmHg 44%
    11:00 +19°C° 0 mm 4 mps 754 mmHg 38%
    12:00 +20°C° 0 mm 4 mps 754 mmHg 37%
    13:00 +20°C° 0 mm 4 mps 753 mmHg 37%
    14:00 +20°C° 0 mm 4 mps 753 mmHg 36%
    15:00 +20°C° 0 mm 4 mps 753 mmHg 38%
    16:00 +20°C° 0 mm 4 mps 753 mmHg 39%
    17:00 +20°C° 0 mm 3 mps 753 mmHg 41%
    18:00 +18°C° 0 mm 3 mps 753 mmHg 46%
    19:00 +16°C° 0 mm 2 mps 753 mmHg 50%
    20:00 +15°C° 0 mm 2 mps 753 mmHg 54%
    21:00 +14°C° 0 mm 2 mps 753 mmHg 56%
    22:00 +14°C° 0 mm 2 mps 753 mmHg 58%
    23:00 +13°C° 0 mm 2 mps 753 mmHg 59%

    25 April, Thursday

    Time Temperature Precipitation Wind Pressure Humidity
    00:00 +13°C° 0 mm 2 mps 753 mmHg 61%
    01:00 +12°C° 0 mm 2 mps 754 mmHg 62%
    02:00 +12°C° 0 mm 2 mps 754 mmHg 63%
    03:00 +10°C° 0 mm 2 mps 754 mmHg 65%
    04:00 +10°C° 0 mm 2 mps 754 mmHg 66%
    05:00 +10°C° 0 mm 2 mps 754 mmHg 67%
    06:00 +13°C° 0 mm 2 mps 754 mmHg 62%
    07:00 +15°C° 0 mm 2 mps 754 mmHg 56%
    08:00 +16°C° 0 mm 2 mps 754 mmHg 50%
    09:00 +18°C° 0 mm 2 mps 754 mmHg 46%
    10:00 +19°C° 0 mm 2 mps 754 mmHg 41%
    11:00 +20°C° 0 mm 2 mps 754 mmHg 37%
    12:00 +21°C° 0 mm 2 mps 754 mmHg 36%
    13:00 +21°C° 0 mm 2 mps 753 mmHg 35%
    14:00 +23°C° 0 mm 2 mps 753 mmHg 34%
    15:00 +23°C° 0 mm 2 mps 753 mmHg 35%
    16:00 +21°C° 0 mm 2 mps 752 mmHg 37%
    17:00 +21°C° 0 mm 2 mps 752 mmHg 38%
    18:00 +21°C° 0 mm 1 mps 752 mmHg 42%
    19:00 +19°C° 0 mm 1 mps 752 mmHg 47%
    20:00 +18°C° 0 mm 1 mps 752 mmHg 51%
    21:00 +16°C° 0 mm 2 mps 752 mmHg 53%
    22:00 +15°C° 0 mm 2 mps 752 mmHg 55%
    23:00 +15°C° 0 mm 2 mps 751 mmHg 57%

    26 April, Friday

    Time Temperature Precipitation Wind Pressure Humidity
    00:00 +14°C° 0 mm 2 mps 751 mmHg 60%
    01:00 +14°C° 0 mm 2 mps 751 mmHg 63%
    02:00 +13°C° 0 mm 2 mps 751 mmHg 66%
    03:00 +13°C° 0 mm 1 mps 751 mmHg 67%
    04:00 +13°C° 0 mm 1 mps 751 mmHg 69%
    05:00 +12°C° 0 mm 1 mps 751 mmHg 70%
    06:00 +14°C° 0 mm 1 mps 751 mmHg 64%
    07:00 +16°C° 0 mm 2 mps 751 mmHg 58%
    08:00 +18°C° 0 mm 2 mps 751 mmHg 53%
    09:00 +19°C° 0 mm 3 mps 750 mmHg 49%
    10:00 +20°C° 0 mm 4 mps 750 mmHg 45%
    11:00 +21°C° 0 mm 4 mps 750 mmHg 42%
    12:00 +21°C° 0 mm 5 mps 749 mmHg 42%
    13:00 +21°C° 0 mm 5 mps 749 mmHg 42%
    14:00 +21°C° 0 mm 5 mps 748 mmHg 42%
    15:00 +21°C° 0 mm 5 mps 748 mmHg 45%
    16:00 +20°C° 0 mm 4 mps 748 mmHg 48%
    17:00 +20°C° 0 mm 4 mps 747 mmHg 50%
    18:00 +19°C° 0 mm 3 mps 747 mmHg 54%
    19:00 +18°C° 0 mm 3 mps 747 mmHg 58%
    20:00 +17°C° 0 mm 2 mps 747 mmHg 61%
    21:00 +17°C° 0 mm 2 mps 747 mmHg 63%
    22:00 +16°C° 0 mm 3 mps 747 mmHg 64%
    23:00 +16°C° 0 mm 3 mps 746 mmHg 66%
    Show more